Regional Weather Roundup
Issued by NWS Charleston, WV

Home | Current Version | Previous Version | Graphics & Text | Print | Product List | Glossary On
Versions: 1 2 3 4 5 6 7 8 9 10 11 12 13 14 15 16 17 18 19 20 21 22 23 24 25 26 27 28
000
ASUS41 KRLX 281010
RWRRLX
West Virginia Regional Weather Roundup
National Weather Service Charleston WV
600 AM EDT SAT MAY 28 2016

Note: "fair" indicates few or no clouds below 12,000 feet with no
significant weather and/or obstructions to visibility.

WVZ003-281100-
Northern Panhandle of West Virginia

CITY           SKY/WX    TMP DP  RH WIND       PRES   REMARKS
WHEELING         N/A     70  62  76 S8        30.10R
$$

WVZ009-281100-
Northwest West Virginia

CITY           SKY/WX    TMP DP  RH WIND       PRES   REMARKS
PARKERSBURG      N/A     67  63  87 CALM      30.12R
$$

WVZ006-281100-
Western West Virginia

CITY           SKY/WX    TMP DP  RH WIND       PRES   REMARKS
HUNTINGTON       N/A     68  63  84 CALM      30.08R
$$

WVZ015-281100-
West Central West Virginia

CITY           SKY/WX    TMP DP  RH WIND       PRES   REMARKS
CHARLESTON     MOCLDY    64  62  93 CALM      30.11R
$$

WVZ022-031-281100-
North Central West Virginia

CITY           SKY/WX    TMP DP  RH WIND       PRES   REMARKS
CLARKSBURG       N/A     62  60  93 CALM      30.13R
MORGANTOWN       N/A     65  59  81 CALM      30.14R
$$

WVZ025-035-042-045-281100-
Southern West Virginia

CITY           SKY/WX    TMP DP  RH WIND       PRES   REMARKS
BECKLEY          N/A     64  59  83 SE8       30.20R
LOGAN            N/A     68  63  83 CALM      30.14R
BLUEFIELD        N/A     63  57  81 S3        30.22R
LEWISBURG      FOG       57  57  99 NE3       30.21R VSB<1/4
$$

WVZ047-281100-
Northern Mountains of West Virginia

CITY           SKY/WX    TMP DP  RH WIND       PRES   REMARKS
ELKINS         FOG       58  56  93 CALM      30.20R VSB 1/4
$$

WVZ052-281100-
Eastern Panhandle of West Virginia

CITY           SKY/WX    TMP DP  RH WIND       PRES   REMARKS
MARTINSBURG      N/A     63  62  97 CALM      30.11R FOG
PETERSBURG     FOG       63  63 100 CALM      30.15R VSB 1/2
$$




USA.gov is the U.S. government's official web portal to all federal, state and local government web resources and services.